Location: Bouysse
(45.3674°N, 1.8947°E)
Time: 18:25:24
(UTC+00:00)

SeaSat 1 - Pass Details

Date: 07 June 2020
Orbit: 744 x 747 km, 108.0° (Epoch: 09 July)

Event Time Altitude Azimuth Distance (km) Brightness Sun altitude
Rises 00:37:00 0° 17° (NNE) 3,200 7.3 -21.1°
Reaches altitude 10° 00:39:42 10° 3° (N) 2,272 6.1 -21.0°
Maximum altitude 00:43:27 22° 313° (NW) 1,587 4.4 -20.8°
Drops below altitude 10° 00:47:11 10° 264° (W) 2,264 4.7 -20.7°
Enters shadow 00:47:20 - 263° (W) 2,311 4.8 -20.7°
